Wind_Speed
17 17 17 18 18 18 18 18 17 19 21 21 21 20 20 19 21 23 24 26 27 29 30 31 32 33 33 31 28 27 28 25 24 24 25 25 27 27 27 27 28 29 29 29
16 16 17 18 18 17 17 16 16 18 19 19 19 19 18 18 19 20 23 25 26 29 31 33 34 36 35 32 29 27 26 24 23 23 23 24 24 25 27 28 29 30 31 32
15 16 18 18 18 17 16 16 16 17 17 17 17 17 17 17 18 19 21 23 25 28 31 34 35 35 35 34 31 29 27 25 24 24 23 24 24 25 26 26 28 31 33 33
15 16 17 17 17 17 15 16 16 16 15 14 16 14 17 17 17 18 20 21 24 26 30 33 35 35 35 34 33 30 28 27 26 25 25 26 25 25 26 28 28 29 31 32
14 16 17 16 16 17 15 16 16 15 15 15 15 15 16 16 16 17 19 20 22 24 26 31 34 35 35 34 33 31 31 30 28 28 28 28 27 27 27 28 28 29 30 32
14 16 17 16 17 17 15 15 14 14 13 15 14 15 15 16 15 16 17 19 21 22 24 27 31 33 34 34 33 33 32 32 31 30 29 28 29 28 27 27 26 27 30 32
14 16 17 16 16 16 13 12 11 12 12 13 14 14 15 14 14 15 16 17 19 21 23 25 28 32 34 34 34 34 33 33 32 31 30 29 29 27 27 27 25 27 29 31
12 13 16 15 14 12 11 9 10 11 12 12 14 15 15 13 13 14 15 16 17 18 21 23 25 27 31 32 32 32 32 33 32 31 30 29 28 27 26 25 25 24 24 26
12 12 14 13 11 10 9 9 10 11 11 13 14 15 14 12 13 13 14 16 16 18 19 21 23 25 27 29 31 31 31 31 30 29 29 28 27 26 25 24 23 23 22 24
12 12 12 11 9 8 7 8 9 9 10 11 13 13 12 11 11 10 11 13 15 17 20 20 22 24 25 27 29 30 30 30 29 29 28 27 26 25 23 22 20 21 21 22
11 11 10 10 8 7 7 8 8 8 10 11 12 12 11 10 10 10 11 12 14 17 19 20 22 24 25 27 28 29 30 30 29 28 27 27 25 25 23 22 21 20 20 21
10 9 9 9 8 7 7 8 9 10 11 11 12 13 12 11 10 11 11 12 12 14 16 18 21 23 24 26 28 28 28 29 28 28 28 27 26 25 24 23 23 22 22 22
8 8 7 8 9 8 8 8 8 9 11 11 13 13 11 12 12 12 12 12 12 13 15 17 19 20 22 23 25 27 28 28 28 28 27 27 26 25 24 24 24 24 24 24
7 7 7 7 8 9 8 8 9 10 11 12 12 13 12 13 13 14 14 14 14 15 15 16 18 20 21 22 24 25 26 27 27 27 27 27 26 26 25 26 26 26 25 25
7 7 7 7 7 8 8 9 9 9 10 11 12 13 13 13 13 14 14 14 14 15 15 16 18 20 21 22 24 25 26 26 27 27 27 27 26 26 26 26 26 26 25 25
7 7 7 7 7 8 8 9 9 10 10 11 12 13 13 13 14 14 14 14 15 16 17 17 18 20 22 22 23 24 25 25 26 26 26 26 26 25 25 25 26 25 25 24
6 6 6 7 7 8 9 9 10 11 11 12 13 13 13 14 14 14 14 15 15 16 17 18 18 19 19 21 22 22 22 23 24 24 24 24 24 24 25 24 24 24 24 24
6 5 5 6 7 8 9 10 10 11 12 13 13 13 14 14 14 14 14 14 15 16 17 18 18 18 18 20 21 21 22 22 23 22 23 22 22 22 22 23 23 23 24 23
6 5 5 6 7 8 10 10 11 12 12 13 13 13 13 13 13 13 13 13 14 15 15 16 16 16 16 17 17 17 18 19 19 19 20 20 20 21 21 21 21 22 22 22
6 6 5 6 7 9 10 11 11 12 12 12 12 12 11 11 11 11 12 13 14 14 15 15 15 15 15 16 16 16 17 18 18 18 18 19 19 19 20 20 20 20 21 21
7 6 5 6 7 8 10 11 11 11 11 12 11 11 10 10 10 11 11 12 12 12 13 14 15 14 14 14 15 16 17 17 17 17 17 17 18 18 18 19 19 19 19 19
6 5 5 5 6 8 9 10 11 11 11 11 10 10 10 9 9 10 9 10 10 11 11 12 12 12 12 12 13 14 14 14 15 15 16 16 17 17 17 18 18 18 18 18
7 5 4 4 6 7 8 9 10 11 11 11 10 10 9 9 8 8 8 8 9 9 10 10 11 12 12 12 13 12 12 13 13 14 14 14 14 15 16 16 16 16 16 16
7 5 3 4 5 6 8 9 10 11 11 10 10 9 9 8 8 7 7 7 7 8 9 9 10 10 11 11 12 12 12 12 12 13 13 13 13 13 13 13 14 14 13 13
7 5 3 2 4 5 7 9 10 11 11 11 10 9 8 7 7 7 6 5 6 6 7 8 9 9 10 10 10 10 10 11 11 11 11 12 12 12 12 12 12 12 12 11
8 5 2 1 3 5 7 9 10 11 11 11 11 10 9 8 8 7 6 5 5 4 4 5 5 6 6 7 8 8 9 9 10 10 10 10 10 10 10 10 11 11 11 11
Wind_Direction
293 296 296 293 293 290 288 287 284 281 279 278 272 267 261 254 249 243 238 234 231 227 223 224 224 226 227 229 232 231 230 233 236 239 240 242 239 235 237 240 240 242 243 244
296 297 296 295 295 293 290 288 285 281 279 278 274 268 261 255 250 245 239 235 232 228 224 223 223 224 225 226 230 235 237 239 240 243 248 247 247 241 241 243 244 243 242 243
294 295 298 298 297 295 292 287 281 279 281 278 275 269 262 257 253 246 241 236 232 228 225 224 224 224 226 228 230 233 237 242 245 246 249 252 252 248 249 249 248 247 246 245
294 297 300 300 298 295 290 286 283 281 282 281 275 269 267 260 254 248 244 237 232 228 226 225 225 224 227 230 230 233 239 243 247 251 254 256 257 256 257 252 252 252 249 246
297 300 300 298 295 294 288 283 283 280 276 271 272 266 262 260 255 251 245 236 233 229 227 225 227 226 228 231 233 233 239 244 248 251 253 256 261 264 263 258 256 252 247 246
298 301 300 298 297 296 292 288 288 284 277 273 269 266 262 261 253 252 248 239 232 230 229 228 228 228 230 232 234 236 240 245 248 251 253 257 261 265 268 265 263 257 252 249
304 304 304 301 300 299 292 289 285 283 277 270 268 267 265 260 254 247 242 239 233 229 229 229 228 228 230 232 235 239 243 246 249 252 255 258 260 266 270 269 265 263 256 252
303 302 302 306 301 292 287 277 267 273 275 272 274 270 272 264 260 253 244 239 236 234 234 232 231 230 231 233 235 238 241 244 248 251 255 258 261 264 268 265 264 264 258 253
304 305 305 308 306 297 289 278 263 264 273 273 275 275 275 269 266 256 245 238 235 235 237 236 235 234 233 234 237 239 242 244 247 251 255 257 262 264 267 269 264 261 258 255
305 309 310 310 310 303 286 276 274 274 276 274 282 289 292 278 270 258 244 236 235 235 234 233 233 234 235 236 238 239 243 245 247 250 253 256 260 262 263 264 260 260 261 257
304 308 311 312 312 302 298 291 286 278 274 277 283 289 296 287 269 259 247 240 238 238 236 235 234 235 237 236 237 240 244 247 250 252 254 255 257 260 260 261 262 260 260 257
301 307 308 305 305 300 296 289 287 282 283 283 283 289 290 287 276 268 260 252 251 242 240 237 236 237 238 238 239 241 244 246 248 250 252 254 256 256 255 256 255 255 257 257
296 303 310 310 308 305 304 302 294 291 284 281 281 288 290 283 277 274 270 265 259 252 245 241 240 239 239 240 239 239 241 244 246 248 250 251 251 252 253 256 255 255 255 256
295 297 295 286 284 293 301 301 299 295 290 287 285 287 285 281 276 273 271 266 264 257 251 248 246 243 243 242 241 240 241 243 244 246 248 249 251 253 254 255 256 256 256 257
293 296 289 286 288 291 296 298 298 295 292 288 286 285 284 281 280 276 272 267 264 257 253 254 251 248 246 245 246 247 247 247 247 249 249 250 251 253 256 257 258 259 259 259
286 289 288 290 293 295 298 299 297 296 296 290 286 286 285 281 278 275 272 270 264 261 258 256 256 252 249 249 248 248 249 250 250 251 251 251 252 254 256 257 258 259 260 260
279 283 291 296 298 302 302 303 303 301 299 297 292 289 285 282 280 276 273 272 266 265 262 259 258 256 250 249 250 250 250 252 253 253 252 252 253 254 255 258 258 258 260 262
269 277 289 300 304 303 303 307 306 305 303 301 296 292 287 284 280 275 273 269 267 268 264 261 261 259 256 255 253 255 256 257 254 252 252 253 254 255 257 259 259 260 262 264
260 270 281 295 304 305 310 312 310 309 307 304 299 295 290 287 281 277 276 272 268 268 265 260 257 259 259 260 259 258 258 257 250 247 248 250 251 254 257 258 261 262 264 265
250 261 277 294 303 306 313 315 315 315 313 310 304 298 294 291 285 281 277 272 269 267 263 262 262 260 259 260 258 256 255 254 249 246 248 250 252 255 257 258 259 260 262 264
245 259 273 292 305 310 318 321 323 322 319 316 312 307 303 296 290 286 278 271 267 265 263 261 260 258 258 258 254 253 255 253 251 251 252 253 254 255 256 258 259 260 262 264
237 252 267 288 303 313 323 326 328 327 324 321 317 313 309 301 298 292 281 273 268 265 263 262 260 260 262 260 257 254 253 253 255 256 256 256 256 256 256 258 260 260 262 263
224 235 258 284 304 320 328 333 333 333 333 329 325 322 319 311 305 301 290 281 274 269 268 265 264 265 266 265 263 261 259 258 257 256 256 256 256 256 257 258 259 259 260 260
211 219 249 287 313 331 337 339 341 342 343 340 335 330 325 322 315 313 300 293 288 278 273 271 268 269 270 268 265 261 259 257 256 255 255 256 257 260 263 262 259 257 257 257
199 208 235 297 334 345 348 349 349 350 351 351 350 346 340 335 334 333 332 323 305 288 283 279 274 271 270 267 262 257 255 256 256 256 256 256 258 261 262 259 255 255 254 254
188 188 200 314 351 356 356 357 358 357 358 358 359 358 356 356 354 351 349 341 328 314 300 288 277 272 269 269 269 266 262 258 256 256 254 254 255 256 255 253 252 252 251 253
Height
5794 5794 5793 5792 5791 5790 5788 5787 5786 5785 5783 5783 5783 5783 5784 5784 5786 5787 5790 5792 5795 5798 5802 5805 5808 5811 5814 5816 5818 5819 5821 5823 5825 5827 5828 5830 5832 5834 5837 5839 5841 5842 5844 5845
5790 5790 5789 5787 5785 5784 5783 5783 5782 5780 5778 5778 5778 5778 5779 5779 5781 5782 5784 5786 5789 5792 5796 5799 5802 5805 5807 5810 5813 5815 5816 5818 5821 5823 5824 5826 5827 5829 5832 5833 5834 5836 5838 5839
5787 5786 5784 5782 5781 5780 5779 5778 5777 5776 5774 5774 5774 5774 5774 5775 5775 5777 5778 5780 5783 5786 5789 5792 5795 5798 5801 5804 5807 5810 5812 5814 5816 5818 5820 5821 5822 5823 5824 5826 5828 5829 5830 5832
5783 5782 5780 5778 5777 5776 5775 5774 5772 5771 5771 5771 5771 5772 5770 5771 5771 5772 5773 5775 5777 5780 5782 5785 5789 5792 5795 5799 5801 5804 5808 5810 5812 5813 5815 5816 5815 5816 5817 5819 5820 5822 5823 5825
5779 5778 5776 5775 5773 5771 5771 5769 5768 5767 5767 5768 5767 5768 5768 5766 5767 5768 5769 5770 5772 5774 5777 5779 5782 5786 5790 5793 5795 5799 5802 5804 5807 5808 5810 5810 5810 5810 5811 5813 5813 5814 5815 5817
5776 5774 5772 5771 5769 5767 5766 5765 5764 5764 5764 5765 5765 5765 5764 5763 5763 5763 5764 5765 5767 5769 5771 5774 5777 5781 5784 5787 5790 5793 5796 5799 5801 5803 5804 5805 5805 5804 5805 5805 5806 5807 5808 5810
5773 5771 5769 5767 5765 5763 5762 5763 5763 5763 5763 5762 5761 5761 5761 5759 5759 5759 5760 5761 5763 5765 5767 5770 5773 5776 5779 5782 5785 5788 5790 5793 5795 5797 5798 5799 5799 5799 5799 5799 5800 5801 5801 5802
5771 5770 5766 5763 5762 5760 5759 5760 5762 5762 5761 5760 5757 5757 5756 5755 5755 5756 5757 5758 5759 5761 5763 5765 5768 5770 5773 5776 5779 5782 5785 5787 5789 5791 5792 5793 5794 5794 5793 5793 5794 5794 5794 5795
5768 5766 5763 5760 5758 5757 5757 5756 5758 5757 5757 5756 5755 5753 5752 5751 5752 5752 5753 5754 5756 5757 5759 5761 5763 5766 5768 5771 5774 5777 5779 5781 5783 5785 5786 5787 5788 5788 5787 5788 5788 5788 5789 5789
5764 5762 5760 5758 5756 5755 5755 5754 5754 5754 5754 5754 5753 5751 5749 5748 5748 5748 5749 5750 5752 5753 5755 5756 5759 5761 5763 5766 5768 5771 5773 5775 5777 5778 5780 5781 5782 5782 5782 5782 5782 5782 5783 5784
5760 5760 5758 5756 5755 5754 5753 5752 5751 5752 5752 5751 5750 5751 5747 5745 5745 5745 5745 5746 5747 5748 5750 5752 5754 5756 5758 5760 5762 5765 5767 5768 5770 5772 5773 5774 5775 5776 5776 5777 5777 5777 5778 5778
5757 5757 5756 5755 5753 5752 5751 5750 5750 5750 5749 5748 5747 5749 5743 5742 5742 5742 5742 5742 5743 5744 5745 5747 5749 5750 5752 5754 5756 5758 5760 5762 5764 5765 5767 5768 5769 5769 5770 5770 5771 5772 5772 5772
5755 5755 5754 5753 5753 5751 5749 5747 5747 5746 5745 5745 5745 5746 5741 5740 5739 5739 5739 5739 5739 5740 5741 5742 5744 5745 5747 5748 5750 5752 5754 5756 5757 5759 5760 5761 5762 5763 5763 5764 5765 5765 5765 5766
5753 5752 5753 5753 5751 5749 5747 5746 5744 5744 5743 5742 5741 5740 5739 5737 5736 5736 5735 5735 5736 5736 5737 5737 5738 5740 5741 5742 5744 5745 5747 5749 5751 5752 5753 5754 5755 5756 5757 5757 5758 5758 5758 5759
5750 5750 5749 5749 5747 5746 5745 5744 5742 5741 5740 5739 5738 5736 5735 5734 5733 5732 5732 5731 5731 5731 5732 5733 5733 5734 5735 5736 5737 5739 5740 5742 5743 5745 5746 5747 5748 5749 5749 5750 5750 5750 5751 5751
5748 5748 5747 5747 5745 5744 5743 5742 5740 5739 5737 5736 5735 5733 5732 5730 5729 5728 5728 5727 5727 5727 5727 5727 5728 5728 5729 5730 5731 5732 5733 5735 5736 5737 5738 5739 5740 5741 5742 5743 5743 5743 5744 5744
5746 5746 5746 5745 5743 5742 5742 5740 5738 5736 5734 5733 5731 5730 5728 5726 5725 5724 5723 5723 5722 5722 5722 5722 5722 5722 5723 5724 5725 5726 5727 5728 5729 5730 5731 5732 5733 5734 5735 5735 5736 5737 5737 5737
5745 5744 5744 5743 5743 5741 5742 5737 5735 5733 5731 5729 5727 5725 5724 5722 5721 5720 5719 5718 5717 5717 5716 5716 5716 5717 5717 5718 5719 5720 5720 5721 5722 5723 5724 5725 5726 5728 5728 5729 5729 5730 5730 5730
5743 5743 5742 5742 5741 5740 5738 5735 5733 5731 5728 5726 5724 5722 5720 5718 5717 5716 5715 5714 5713 5712 5711 5711 5711 5712 5712 5712 5713 5714 5715 5715 5716 5717 5718 5719 5720 5721 5722 5722 5723 5723 5723 5723
5741 5741 5741 5740 5739 5738 5737 5733 5730 5729 5726 5723 5720 5718 5716 5714 5713 5713 5711 5710 5708 5708 5707 5707 5707 5707 5707 5707 5708 5708 5709 5710 5711 5711 5712 5713 5714 5715 5716 5716 5716 5717 5717 5717
5740 5740 5739 5738 5737 5736 5734 5730 5728 5727 5725 5720 5717 5715 5713 5711 5710 5709 5707 5706 5705 5704 5703 5703 5702 5702 5703 5703 5703 5703 5704 5705 5706 5706 5707 5708 5708 5709 5710 5710 5711 5711 5711 5712
5738 5738 5738 5737 5736 5736 5732 5729 5727 5724 5720 5717 5714 5712 5710 5708 5706 5704 5703 5702 5701 5700 5700 5699 5699 5698 5698 5699 5699 5699 5700 5700 5701 5701 5702 5703 5703 5704 5705 5705 5705 5706 5706 5706
5736 5737 5737 5736 5736 5733 5730 5727 5724 5721 5718 5715 5712 5710 5707 5705 5703 5701 5699 5698 5698 5697 5696 5696 5696 5695 5695 5695 5695 5695 5695 5696 5696 5697 5697 5698 5698 5699 5699 5700 5700 5701 5701 5701
5735 5735 5735 5734 5733 5730 5728 5725 5722 5719 5716 5713 5710 5707 5705 5703 5701 5698 5696 5695 5695 5694 5693 5693 5692 5692 5691 5691 5691 5691 5692 5692 5692 5693 5693 5694 5694 5695 5695 5695 5695 5696 5696 5697
5734 5734 5734 5733 5732 5729 5727 5724 5721 5718 5715 5712 5709 5706 5703 5701 5699 5696 5695 5693 5692 5691 5690 5690 5689 5689 5688 5688 5687 5688 5688 5688 5689 5689 5689 5689 5690 5690 5691 5691 5691 5692 5692 5693
5733 5733 5733 5733 5731 5729 5727 5724 5721 5717 5714 5711 5708 5705 5702 5700 5697 5695 5693 5692 5690 5689 5688 5687 5686 5686 5685 5685 5684 5684 5684 5684 5685 5685 5685 5686 5686 5687 5687 5687 5688 5688 5689 5689